Dauntless Aviation
Airports North America Netherlands Antilles
TNCC
CUR

Hato

Willemstad, NETHERLANDS ANTILLES

Airport Info
Suggest Updated Information for this Airport

Location

Latitude / Longitude: 12°11'20"N / 68°57'35"W
  12°11.334'N / 68°57.588'W
  12.1889 / -68.9598

Nearby radio navigation aids

HTO HATO TACAN on field.
PJG CURACAO VOR/DME. 113.7° 3.0nm from PJG to field.

Runway Information

Runway 11 /29

Dimensions: 11187 x 197 ft.
Surface: ASP
 
Runway 11
Runway 29
Latitude: 12.190411 12.185969
Longitude: -68.967544 -68.9443
Elevation: 25 ft. 25 ft.
Runway true heading: 102.1 282.1
 
Satellite photo at:
Airport distance calculator
From:
Weather Reports

METAR

TNCC

TNCC 250700Z 10009KT 9999 FEW016 28/25 Q1012 NOSIG
TNCB
39.8nm E
TNCB 250655Z AUTO 09014KT 9999 FEW018/// 29/24 Q1012

TAF

TNCC
TAF TNCC 250300Z 2506/2606 10012KT 9999 FEW018 PROB30 TEMPO 2506/2514 BKN015
TNCB
39.8nm E
TAF TNCB 250453Z 2506/2612 08012KT 9999 SCT018 BECMG 2510/2513 11015G25KT BECMG 2518/2521 07012KT
Safelog

 

Dauntless Aviation

© 2007-2016 Dauntless Aviation, all rights reserved
Information provided via PilotNav comes from a variety of official and unofficial data sources. As errors are possible, do not use PilotNav for primary flight planning purposes. Verify any information that you receive via PilotNav with current and canonical charts and other official documents. The material in this database is subject to database copyrights held by Dauntless Aviation and may not be copied without the express permission of Dauntless Aviation - licenses for use of part of all of this data are available for purchase; enquire via the Dauntless Aviation helpdesk. A number of mechanisms and markers exist in the database to protect against and identify infringement / copyright. Automated queries against this website are stictly prohibited, and all activity is logged and analyzed.